voRXj8x.gif (770×66)

1 WEEK
50 EUR
7/8 Provided Games
High Winning Possibility
1 VIP TICKET per WEEK
Personal Assistance
Odds 2.00 – 30.00
 
1 MONTH
150 EUR
32/34 Provided Games
High Winning Possibility
ALL VIP TICKETS
ALL HT/FT
Personal Assistance
Odds 2.00 – 30.00
2 WEEKS
90 EUR
14/16 Provided Games
High Winning Possibility
2 VIP TICKETS
1 HT/FT
Personal Assistance
Odds 2.00 – 30.00

   Contact : GEMBET@NET.HR

Whatsapp: +389 78 670 897


CURRENT MONTH MAY

DATE MATCH – HOME / AWAY TIP ODD HT/FT
01.05.2018 Doncaster – Wimbledon X 3.25 0:1
02.05.2018 Furstenwalde – Altglienicke 2 2.90 0:1
03.05.2018 Schalding – Pipinsried X 3.60 1:1
04.05.2018 Alcorcon – Leonesa X 3.10 0:0
05.05.2018 Salernitana – Entella 1 2.50 1:0
06.05.2018 Pordenone – Renate X 2.70 1:1
07.05.2018 Kings Lynn – Slough 2 3.20 1:2
08.05.2018 Swansea – Southampton 2 2.50 0:1
09.05.2018 Wattenscheid – Bonner 2 2.90 1:2
10.05.2018 Middelfart – Jammerbugt X 3.40 1:1
11.05.2018 Lorca FC – Numancia 1 4.00 2:1
12.05.2018 Eupen – Oostende 2 2.65 0:4
13.05.2018 Kiel – Braunschweig 1 3.20 6:2
14.05.2018 AIK Stockholm – Östersunds X 3.20 1:1
15.05.2018 Vardeneset – Brodd X 5.00 1:1
16.05.2018 Wathbah – Al Taliya 1 2.50 3:1
17.05.2018 Almere – Graafschap X 3.80 1:1
18.05.2018 Karlsruher – Erzgebirge Aue X 3.10 0:0
19.05.2018 IK Frej – Landskrona 1 2.62 2:1
20.05.2018 Korona – Zaglebie 2 2.90 0:2
21.05.2018 BUY NOW ! ? ? ?:?

CURRENT MONTH APRIL

DATE MATCH – HOME / AWAY TIP ODD HT/FT
01.04.2018 Atletico-MG – Cruzeiro 1 2.30 3:1
02.04.2018  Oldham – Blackpool 1 2.50 2:1
03.04.2018 Juventus  –  Real Madrid 2 2.60 0:3
04.04.2018 Jeddeloh – Hannover II 1 3.20 1:0
05.04.2018 FK Vozdovac – Cukaricki X 3.00 0:0
06.04.2018 Telstar – Jong PSV X 3.60 0:0
07.04.2018 Ternana – Cittadella 1 3.50 5:1
08.04.2018 Levanger – Aalesund 2 2.40 1:2
09.04.2018 RB Leipzig – B. Leverkusen 2 3.10 1:4
10.04.2018 Wimbledon – Charlton 1 3.00 1:0
11.04.2018 Braunschweig II – Oldenburg 1 2.50 1:0
12.04.2018 Marseille – RB Leipzig 1 2.70 5:2
13.04.2018 Derry City – Waterford 1 2.10 1:0
14.04.2018 Pescara – Bari X 3.10 2:2
15.04.2018 Ranheim – Haugesund 1 2.80 4:2
16.04.2018 Adanaspor – Boluspor 2 2.20 2:3
17.04.2018 Pro Vercelli – Pescara 1 2.40 3:1
18.04.2018 Chojniczanka – Katowice 2 3.20 0:2
19.04.2018 Lausanne – Luzern 2 2.40 0:1
20.04.2018 Shelbourne – Galway 1 3.20 2:0
21.04.2018 Birmingham – Sheffield Utd 1 3.10 2:1
22.04.2018 Ravenna – Vicenza 1 2.30 2:0
23.04.2018 Odd – Sarpsborg 08 1 2.60 3:1
24.04.2018 Royston – Slough 2 2.50 0:4
25.04.2018 Babelsberg – Lokomotive Leipzig 1 2.30 4:2
26.04.2018 Poli Iasi – Astra 2 3.10 0:3
27.04.2018 Bala Town – Bangor City 2 3.20 1:2
28.04.2018 Bury – Portsmouth 1 3.60 1:0
29.04.2018 Heidenheim – Sandhausen 1 2.70 2:0
30.04.2018 Shamrock Rovers – Cork City 1 3.10 3:0

CURRENT MONTH MARCH

DATE MATCH – HOME / AWAY TIP ODD HT/FT
01.03.2018 Al Salmiya – Al Naser 1 2.40 1:0
02.03.2018 Helmond – Jong AZ 1 2.40 3:0
03.03.2018 Sonnenhof Grossaspach – Unterhaching 2 2.20 1:2
04.03.2018 Brighton – Arsenal 1X 2.00 2:1
05.03.2018 Sittard – Maastricht 1 2.10 3:0
06.03.2018 Al-Fateh – Al Batin 1 2.00 5:2
07.03.2018 Al Nasr – El Gaish 1 3.25 1:0
08.03.2018 Kuban – FC Tambov X 3.00 0:0
09.03.2018 FAC Wien – Neustadt 1 2.00 0:3
10.03.2018 Lausanne – St. Gallen 2 2.80 1:4
11.03.2018 Guingamp – Nice 2 2.70 2:5
12.03.2018 Arka – Termalica B-B. 1 2.00 4:0
13.03.2018 Barnsley – Norwich 1 2.90 1:1
14.03.2018 Kassel – Ulm 1 2.10 2:0
15.03.2018 Plzen – Sporting 1 2.70 2:0
16.03.2018 Chateauroux – Le Havre 1 2.60 2:1
17.03.2018 Birmingham – Hull 1 3.30 3:0
18.03.2018 Znojmo – Usti n. L. 1 2.10 3:0
19.03.2018 Erzgebirge Aue – G. Furth 1 2.60 2:1
20.03.2018 Crewe – Forest Green 1 2.25 3:1
21.03.2018 Sicula Leonzio – Rende 1 2.30 1:0
22.03.2018 Lecce – Andria AH1(-1.5) 2.20 2:2
23.03.2018 Austria – Slovenia Slovenia 0 3.50 3:0
24.03.2018 Forest Green – Mansfield 1 3.90 2:0
25.03.2018  Zaragoza – Sevilla B AH(-1.25) 2.10 0:1
26.03.2018 Ballymena – Ballinamallard
Wealdstone – Eastbourne
1& Over 1.5
Over 2.5
1.65
1.90
2:0
2:3
27.03.2018 Marocco – Uzbekistan AH1(-1,-1.5) 2.40 2:0
28.03.2018 Oberlausitz – Auerbach 2 3.00 1:3
29.03.2018 Brescia – Pescara 1 2.20 2:1
30.03.2018 Plymouth – Southend 1 2.60 4:0
31.03.2018 West Ham – Southampton 1 2.90 3:0

CURRENT MONTH FEBRUARY

 

 

 

 

 

 

 

 

 

 

 

 

 

 

 

 

 

 

 

 

 

 

 

 

 

 

 

 

 

 

 

 

 

 

 

 

 

 

 

 

 

 

 

 

 

 

 

 

 

DATE MATCH – HOME / AWAY TIP ODD HT/FT
01.02.2018 Al Ahli – That Ras X 3.10 0:0
02.02.2018 Antwerp – Waasland-Beveren 2 3.75 1:2
03.02.2018 Burnley – Manchester City BTS/Yes 2.25 1:1
04.02.2018 Liverpool – Tottenham X 3.75 2:2
05.02.2018 Watford – Chelsea 1 6.50 4:1
06.02.2018 Zwolle – Heerenveen 1 2.80 3:2
07.02.2018 Anorthosis – Omonia 1 2.50 1:2
08.02.2018 Grenoble – Strasbourg 2 3.25 0:3
09.02.2018 Oss – Almere City 1 3.60 5:1
10.02.2018 Crotone – Atalanta X 3.50 1:1
11.02.2018 Huddersfield – Bournemouth 1 3.10 4:1
12.02.2018 Hobro – Aarhus 2 2.75 0:1
13.02.2018 Tamworth – Blyth Spartans 1 3.00 0:3
14.02.2018 Real Madrid – Paris SG 1 2.40 3:1
15.02.2018 Real Sociedad – Salzburg X 3.40 2:2
16.02.2018 Ankaragucu – Rizespor 2.50 2:4
17.02.2018 Schalke – Hoffenheim 1 2.10 2:1
18.02.2018  Bologna – Sassuolo 1 2.60 2:1
19.02.2018 Eintracht Frankfurt – RB Leipzig 1 2.70 2:1
20.02.2018 Barnet – Carlisle 2 2.70 2:3
21.02.2018 Elazigspor -Giresunspor 1 2.50 2:1
22.02.2018  Lokomotiv Moscow- Nice 1 2.50 1:0
23.02.2018 Regensburg-Dusseldorf 1 2.20 4:3
24.02.2018 Ternana -Bari 2 2.80 1:2
25.02.2018 Cardiff -Bristol City 1 2.40 1:0
26.02.2018 Atromitos -AEK Athens FC X 3.00 1:1
27.02.2018 Reading -Sheffield Utd 2 2.60 1:3
28.02.2018 Pyunik – Banants 1 2.30 2:0

CURRENT MONTH JANUARY

DATE MATCH – HOME / AWAY TIP ODD HT/FT
01.01.2018 Barnet – Swindon 2 2.40 1:2
02.01.2018 Southampton – Crystal Palace 2 3.90 1:2
03.01.2018 Aves – Moreirense 2 4.00 1:2
04.01.2018 Setubal – Estoril X 3.20 2:2
05.01.2018 Chievo – Udinese X 3.20 1:1
06.01.2018 Benevento – Sampdoria 1 3.30 3:2
07.01.2018 Anorthosis – AEK Larnaca 1 2.30 3:1
08.01.2018 Churchill Brothers – East Bengal X 4.50 1:1
09.01.2018 El Gaish – Alassiouty 1 2.80 2:1
10.01.2018 Real Madrid – Numancia X 9.00 2:2
11.01.2018 Al Nasr – Al Sharjah 2 2.70 1:2
12.01.2018 Strasbourg – Guingamp 2 2.80 0:2
13.01.2018 Chelsea – Leicester X 6.00 0:0
14.01.2018 Liverpool – Manchester City 1 3.10 4:3
15.01.2018 Jordan – Denmark 1 6.50 3:2
16.01.2018 Bordeaux – Caen 2 5.75 0:2
17.01.2018 Guingamp – Lyon 2 2.00 0:2
18.01.2018 Uganda – Namibia 2 3.20 0:1
19.01.2018 Orleans – Auxerre 2 2.50 2:3
20.01.2018 Everton – West Brom X 3.00 1:1
21.01.2018 Southampton – Tottenham X 3.75 1:1
22.01.2018 Swansea – Liverpool 2 2.00 1:0
23.01.2018 Livingston – Falkirk 2 2.90 0:1
24.01.2018 Foz do Iguacu – Toledo X 3.30 1:1
25.01.2018 Biskra – ES Setif 1 2.80 1:0
26.01.2018 Dijon – Rennes 1 2.70 2:1
27.01.2018 Wrexham – Tranmere X 3.10 2:2
28.01.2018 Congo – Libya X 2.70 1:1
29.01.2018 Guimaraes B – Covilha 1 2.30 3:0
30.01.2018 Dergview – Loughgall 2 2.30 1:5
31.01.2018 St. Liege – Club Brugge KV 1 2.70 4:1

CURRENT MONTH DECEMBER

DATE MATCH – HOME / AWAY TIP ODD HT/FT
01.12.2017 Dijon – Bordeaux 1 3.25 3:2
02.12.2017 Backa – FK Crvena zvezda X 8.00 2:2
03.12.2017 Roda – Heerenveen 1 4.20 2:1
04.12.2017 Verona – Genoa 2 2.25 0:1
05.12.2017 Bayern Munich – Paris SG 1 2.50 3:1
06.12.2017 Maribor – Sevilla X 6.00 1:1
07.12.2017 Al Ahli Doha – Al Rayyan 1 5.00 2:0
08.12.2017
09.12.2017
10.12.2017 Deportivo Moron – Guillermo Brown 1 2.50 1:0
11.12.2017 Lazio – Torino 2 6.50 1:3
12.12.2017 Genoa – Atalanta 2 2.25 1:2
13.12.2017 Hibernians – Floriana 2 3.10 0:1
14.12.2017 Heracles – Sparta Rotterdam 1 2.40 3:2
15.12.2017 Sevilla – Levante X 6.00 0:0
16.12.2017 Troyes – Amiens 1 2.50 1:0
17.12.2017 Crotone – Chievo 1 3.00 1:0
18.12.2017 Malaga – Betis 2 3.50 0:2
19.12.2017 Mainz – Stuttgart 1 3.10 3:1
20.12.2017 Amiens – Nantes 2 2.70 0:1
21.12.2017 Eibar – Girona 1 2.10 4:1
22.12.2017 Cagliari – Fiorentina 2 2.35 0:1
23.12.2017 Stoke – West Brom 1 3.25 3:1
24.12.2017 Ajax – Willem II BTS/Yes 2.50 3:1
25.12.2017
26.12.2017 Iraq – Qatar 1 3.10 2:1
27.12.2017 Parma – Spezia X 3.00 0:0
28.12.2017 Saudi Arabia – Oman 2 3.70 0:2
29.12.2017 Qatar – Bahrain X 3.20 1:1
30.12.2017 Newcastle – Brighton X 3.20 0:0
31.12.2017

CURRENT MONTH NOVEMBER

DATE MATCH – HOME / AWAY TIP ODD HT/FT
01.11.2017 Besiktas – Monaco X 3.60 1:1
02.11.2017 Young Boys – Dyn. Kiev 1 2.50 0:1
03.11.2017 Ebreichsdorf – Horn X 3.25 1:1
04.11.2017 Huddersfield – West Brom 1 2.50 1:0
05.11.2017 Apollon Larissa – Veria 2 4.90 1:3
06.11.2017 Deportivo Riestra – Villa Dalmine 1 2.60 1:1
07.11.2017 Deportivo Armenio – Midland 2 3.25 0:0
08.11.2017 El Porvenir – Club Lujan X 3.00 0:1
09.11.2017 Rampla Juniors – Sisley X 3.00 1:1
10.11.2017 Poland – Uruguay 1 2.60 0:0
11.11.2017 Zambia – Cameroon 3+ 2.50 2:2
12.11.2017 Toledo – Ferrol 1 2.50 2:1
13.11.2017 Victoriano A. – Lugano 3+ 2.50 2:1
14.11.2017 Ashkelon (Isr) – Beitar Tel Aviv (Isr) 2 3.50 3:4
15.11.2017 MFM FC (Nig) – Niger Tornadoes (Nig) 2 3.50 0:0
16.11.2017 Chapecoense-SC – Vitoria 3+ 2.40 2:1
17.11.2017 VfB Stuttgart – Dortmund 1 4.20 2:1
18.11.2017 Crystal Palace – Everton X 3.25 2:2
19.11.2017 Den Haag – Heracles 1 2.15 4:1
20.11.2017 Tigre – Estudiantes L.P. 1 2.60 2:0
21.11.2017 Fenix – Atletico Atlanta 1 2.50 3:1
22.11.2017 Juventus – Barcelona X 3.60 0:0
23.11.2017 Skenderbeu – Dyn. Kiev 1 7.00 3:2
24.11.2017 West Ham – Leicester X 3.40 1:1
25.11.2017 Venezia – Novara 2 4.75 1:3
26.11.2017 Tottenham – West Brom X 4.20 1:1
27.11.2017 QPR – Brentford X 3.70 2:2
28.11.2017 Amiens – Dijon 1 2.30 2:1
29.11.2017 Angers – Rennes 2 3.80 1:2
30.11.2017 Manama Club – Malkia X 3.25 2:2
31.11.2017

HT FT Matches Sure Odds Bet Fixed Predictions 1X2. Fixed Tips. Sure Profit. Secure Match. Best Tip 1×2. Sure Tip. Today Fixed Match

Best HT FT Predictions Sure Odds Bet Wins Matches

 

 

 

 

 

 

 

 

 

 

 

 

 

 

 

 

 

 

 

 

 

 

 

 

 

 

 

 

 

 

 

 

 

 

 

 

 

 

 

 

 

 

 

 

 

 

 

 

 

 

 

 

 

 

1/2 2/1 fixed matches free. fixed matches ht/ft. ht/ft fixed match. free tips 2/1. fixed matches 2/1. fixed match 100% sure. ht/ft fixed. sure tips 2/1 free. 1X2 betting tips. 2/1 1/2 tips free. fixed ht ft. Today fixed Matches. ht ft match. tip 2/1. free fixed bet. Best HT FT Predictions Sure Odds Bet Wins Matches. ht/ft soccer tips. free betting tips ht/ft. fixed match ht ft. tips 1/2 Fixed Matches. HT FT. 2-1. 1-2. Tips 1×2. Predictions. Free Soccer. Best HT FT Predictions Sure Odds Bet Wins Matches. Fixed Tips. Sure Profit. Secure Match. Best Tip 1×2. Sure Tip. Today Fixed Match. Vip Tips 1×2. Sure 100%. Real Matches. footbal predictions. today fixed match. correct scores sure 100% Over 85% WIN RATE! 100% Satisfaction Guarantee easy money. fixed match. fixed tips. gambling. paid matches. soccer matches. soccer tips. ht/ft prediction tips. fixed match tips. free fixed matches today. Sport Bet Sure Predictions. free fixed matches tips. tips 1×2 free 100. free soccer predictions ht/ft. ht/ft predictions for today. Best HT FT Predictions Sure Odds Bet Wins Matches. fixed match 1/2 free. ht/ft prediction sites. soccer prediction ht ft. If you arrived to our website searching for free fixed matches. fixed match tips free. free match tips. Best HT FT Predictions Sure Odds Bet Wins Matches. best fixed matches. pronostic ht ft. info tips. free manipulated matches. Bet Fixed Matches Tomorrow. Weekend Fixed Matches. 1/2 tips free. sure win bet predictions. free fixed. betting 1×2. htft. 1/2 or 2/1 free tips. Soccer Predictions. fixedmatches. betting tips ht/ft. ht/ft betting tips. best ht/ft predictions. fixed games for today. 100 sure soccer prediction sites. Analize. Best HT FT Predictions Sure Odds Bet Wins Matches. Best HT FT Predictions Sure Odds Bet Wins Matches fixed have monthy subscription. this matches is analyxed matches with all info for this match. this matches is sure over 95% and profit is guaranted. We have real fixed matches. Not for free. Best HT FT Predictions Sure Odds Bet Wins Matches As we also pay a lot money to get the matches. we can not give you any free fixed match. 1X2 daily tips best Odds Best football tips betting offers Betting tips bet tips football betting predictions football betting tips football prediction football predictions football predictor football tips free bets Free Betting Tips Free Daily Betting Tips free football picks Free Football Tips freepicks free picks Free soccer picks free soccer prediction free soccer tips Free Soccer Tips for today Free Tips Free Tips 1X2 no deposit free Best HT FT Predictions Sure Odds Bet Wins Matches bet Paid and Free Soccer Picks Picks prediction football soccer betting tips soccer picks soccer prediction soccer predictions soccer prediction sites soccer tips tips football weekend football tips.easy money. fixed match. fixed tips. gambling. paid matches. soccer matches. soccer tips. sports betting. sure win

Best HT FT Predictions Sure Odds Bet Wins Matches Best HT FT Predictions Sure Odds Bet Wins Matches. Gambling involves high psychological and financial risk. Best HT FT Predictions Sure Odds Bet Wins Matches cannot be held responsible for any loss or damage as consequence of decisions based on information. betting advices or links provided on this site. Best HT FT Predictions Sure Odds Bet Wins Matches. The visitor is warned to act exclusively at his own discretion and risk. Best HT FT Predictions Sure Odds Bet Wins Matches, soccer matches predictions, prediction football matches, prediction of football matches, predictions for today matches, predictions for soccer matches, today matches prediction, matches predictions, soccer matches for today, vip tips soccer, soccer vip tips, free vip soccer tips, vip betting tips, www.vip.hr, vip football tips, vip bet tips, vip tips.com Best HT FT Predictions Sure Odds Bet Wins Matches

%d bloggers like this: